Location: Derden
(32.1838°N, 97.3286°W)
Time: 02:14:04
(UTC+00:00)

Daily predictions for brighter satellites

Satellite Brightness Start Highest point End
(mag) Time Altitude Azimuth Time Altitude Azimuth Time Altitude Azimuth
Delta 168 4.3 02:01:19 10° WSW 02:06:06 43° S 02:13:07 10° ESE
Centaur AC-119 4.2 02:02:35 10° SSW 02:06:18 32° SE 02:15:40 10° E
USA 234 3.4 02:02:41 10° NE 02:09:03 53° SE 02:15:22 10° SSW
DELTA 2 R/B (1) 4.0 02:05:04 10° WNW 02:10:33 57° SSW 02:16:02 10° SE
Meteor 1-18 Rocket 4.4 02:07:48 10° S 02:13:42 87° W 02:19:33 10° N
Resurs 01 Rocket 1.9 02:10:04 10° SSE 02:14:19 50° ENE 02:18:34 10° N
SJ-6B 3.8 02:15:23 10° S 02:18:49 43° W 02:22:16 10° NNW
Cosmos 2026 Rocket 4.0 02:13:25 10° S 02:19:36 79° E 02:25:43 10° N
Lacrosse 5 rocket 2.7 02:22:30 10° WNW 02:26:15 32° WSW 02:29:51 10° S
Cosmos 1470 4.4 02:25:29 10° NE 02:27:56 17° ENE 02:29:33 13° ESE
CZ-4 R/B 2.4 02:25:02 10° S 02:28:47 44° W 02:32:36 10° NNW
CZ-4B R/B 3.2 02:24:41 10° SSE 02:29:57 88° WSW 02:35:17 10° NNW
Cosmos 1328 Rocket 4.3 02:27:57 10° SSW 02:32:09 55° W 02:36:21 10° N
KORONAS-FOTON 4.1 02:28:39 10° SSE 02:32:09 43° E 02:35:43 10° NNE
Cosmos 1842 3.1 02:34:15 10° S 02:37:50 58° E 02:41:26 10° NNE
IRIDIUM 106 4.5 02:37:16 10° N 02:42:23 55° E 02:46:58 13° SSE
H-2A R/B 2.2 02:44:27 10° SW 02:45:25 12° SSW 02:45:26 12° SSW
Cosmos 540 Rocket 4.2 02:46:49 10° N 02:51:33 36° ENE 02:54:15 21° ESE
Meteosat 1 Rocket2 4.3 02:47:50 10° W 02:53:02 52° S 02:58:25 19° ESE
USA 186 4.1 02:53:42 10° SSW 02:56:26 24° W 02:59:11 10° NW
Cosmos 2082 Rocket 4.1 02:51:56 10° SW 02:57:03 33° WNW 03:02:10 10° N
SL-16 R/B 3.7 02:56:27 10° N 03:00:44 22° ENE 03:03:14 16° E
Okean-O 2.6 02:58:43 23° SSE 03:01:25 68° ENE 03:05:47 10° N
Cosmos 1954 Rocket 4.5 02:56:23 10° SSW 03:01:37 64° WNW 03:06:51 10° N
MOS 1-B Rocket 4.3 02:55:29 10° S 03:01:56 67° WSW 03:07:41 10° NNW
Cosmos 1707 2.5 02:59:32 12° S 03:02:47 81° W 03:06:24 10° N
Cosmos 1515 Rocket 4.2 02:59:52 10° SSW 03:04:05 55° W 03:08:20 10° N
SeaSat 1 3.9 03:02:21 17° E 03:04:32 23° ENE 03:08:20 10° N
Cosmos 2369 3.7 02:59:08 10° NNW 03:04:54 84° ENE 03:08:35 23° SSE
PSLV R/B 4.4 03:02:42 14° S 03:05:29 46° W 03:08:54 10° NNW
Atlas Centaur 2 3.0 02:59:22 10° W 03:07:25 80° S 03:14:19 17° E
USA 245 4.5 03:10:21 22° ENE 03:10:35 22° ENE 03:13:35 10° NNE
Cosmos 676 Rocket 4.5 03:07:25 10° SSW 03:12:40 63° WNW 03:17:56 10° N
CZ-4C R/B 3.7 03:09:58 10° N 03:14:05 66° WNW 03:18:07 10° SSW
SPOT 5 2.6 03:14:17 34° SE 03:15:59 64° ENE 03:20:16 10° N
IRS-1A Rocket 4.4 03:14:38 29° SE 03:17:14 54° ENE 03:22:35 10° N
Cosmos 2228 Rocket 4.1 03:18:36 29° E 03:18:48 29° E 03:22:45 10° NNE
MetOp-B 4.1 03:16:28 29° SSE 03:19:16 72° ENE 03:24:36 10° N
Okean O Rocket 3.1 03:17:40 10° SSW 03:21:36 32° W 03:25:33 10° NW
Tiangong -0.9 03:19:09 10° NW 03:22:04 34° NNE 03:22:45 30° NE
Cosmos 1356 Rocket 4.3 03:25:55 32° E 03:25:55 32° E 03:29:20 10° NNE
ASTRO E2 3.0 03:22:55 10° WSW 03:25:30 40° SSW 03:25:30 40° SSW
Cosmos 1553 Rocket 4.1 03:22:39 10° N 03:28:51 79° W 03:33:03 22° S
Cosmos 1869 Rocket 3.7 03:25:08 10° N 03:29:30 54° E 03:30:17 47° ESE
Cosmos 1400 Rocket 2.6 03:28:43 52° S 03:29:34 78° E 03:33:26 10° N
ERS-1 Rocket 3.1 03:30:43 41° SE 03:32:15 59° ENE 03:37:11 10° N
S3M 4.2 03:26:10 10° N 03:32:23 55° E 03:34:40 37° SE
Cosmos 2266 Rocket 3.9 03:30:54 21° S 03:35:15 87° E 03:41:40 10° N
Cosmos 1655 Rocket 4.1 03:34:27 34° SSE 03:37:09 60° E 03:43:26 10° NNE
ATLAS CENTAUR R/B 1.3 03:36:30 29° SW 03:38:02 62° WNW 03:41:31 10° NNE
Meteor 1-22 Rocket 4.4 03:34:27 10° N 03:40:07 60° E 03:41:50 43° SE
Cosmos 841 Rocket 4.0 03:36:02 10° N 03:41:03 44° ENE 03:41:59 40° E
Cosmos 1980 Rocket 3.6 03:37:11 10° NW 03:42:06 31° WSW 03:45:43 16° SSW
Cosmos 1763 Rocket 4.3 03:37:46 10° NNW 03:42:43 45° WSW 03:45:09 27° SSW
Spot 2 Rocket 3.7 03:42:27 47° ESE 03:43:25 55° ENE 03:48:23 10° N
Cosmos 2322 Rocket 3.2 03:38:50 10° N 03:43:50 31° ENE 03:44:58 28° E
Cosmos 1300 4.3 03:41:24 10° NNE 03:43:15 22° NE 03:43:15 22° NE
Cosmos 1441 Rocket 3.2 03:41:41 10° NNW 03:45:16 64° W 03:45:27 63° WSW
Resurs 01 Rocket 4.5 03:50:01 10° WSW 03:50:57 11° W 03:51:54 10° W
Cosmos 1908 3.9 03:49:47 10° NNW 03:53:12 42° W 03:53:29 41° WSW
Cosmos 1862 Rocket 3.9 03:55:14 50° ENE 03:55:14 50° ENE 03:58:57 10° NNE
Meteor 1-21 4.2 03:54:03 52° SSE 03:55:14 65° E 04:00:59 10° NNE
Terra 1.6 03:54:54 67° SSE 03:55:31 89° ENE 04:00:15 10° NNW
Cosmos 2278 3.6 03:50:01 10° NNW 03:55:45 88° ENE 03:57:04 55° SSE
Meteor 2-10 Rocket 3.6 03:50:26 10° N 03:55:51 60° E 03:56:28 56° ESE
Cosmos 883 Rocket 4.5 03:55:27 10° N 04:01:47 72° E 04:03:16 53° SSE
Landsat 5 3.9 04:02:46 10° NNE 04:05:57 52° NE 04:05:57 52° NE
Okean 3 4.3 04:08:31 41° NE 04:08:31 41° NE 04:11:24 10° NNE
Ariane Rocket 2.8 04:07:33 72° S 04:08:06 87° WSW 04:13:13 10° NNW
Cosmos 2219 Rocket 3.9 04:05:16 10° NNE 04:09:15 19° ENE 04:09:56 19° ENE
Cosmos 2237 4.2 04:05:35 10° NNW 04:11:18 77° WSW 04:12:12 63° S
SL-14 R/B 4.1 04:12:43 46° WNW 04:12:43 46° WNW 04:16:02 10° N
Cosmos 1707 Rocket 3.8 04:15:12 65° W 04:15:12 65° W 04:19:37 10° N
SJ 16-02 1.8 04:16:45 55° NNE 04:16:45 55° NNE 04:20:08 10° NNE
Cosmos 1346 Rocket 4.1 04:23:51 10° N 04:26:15 37° N 04:26:15 37° N
Cosmos 2315 Rocket 4.1 04:22:00 10° N 04:28:22 75° W 04:29:34 59° SSW
SPOT 3 Rocket 3.9 04:32:13 54° WSW 04:32:24 54° W 04:37:27 10° NNW
RESURS DK-1 3.5 04:28:25 10° NNW 04:31:10 41° NNW 04:31:10 41° NNW
Cosmos 2360 Rocket 2.3 04:28:32 10° NNW 04:34:00 65° ENE 04:34:00 65° ENE
ATLAS 2AS CENTAUR R/B 3.0 04:30:07 10° NNW 04:36:39 50° NE 04:37:28 47° E
MOS 1 Rocket 4.4 04:38:37 40° WSW 04:39:10 41° W 04:44:14 10° NNW
SeaSat 1 3.5 04:42:03 37° W 04:42:03 37° W 04:46:15 10° NW
Cosmos 1733 Rocket 4.0 04:39:29 10° NNW 04:42:50 45° NW 04:42:50 45° NW
SL-16 R/B 2.9 04:39:38 10° NW 04:44:57 43° WSW 04:45:05 43° WSW
Okean 1-7 4.3 04:47:57 39° N 04:47:57 39° N 04:50:43 10° N
USA 281 4.0 04:45:41 35° ENE 04:46:29 36° ENE 04:52:23 10° N
Cosmos 2333 Rocket 2.3 04:41:45 10° NNW 04:47:07 74° NNE 04:47:07 74° NNE
CZ-2C R/B 4.4 04:50:23 32° ENE 04:50:23 32° ENE 04:59:13 10° N
Meteor 2-20 4.4 04:44:47 10° NNW 04:50:54 71° W 04:51:09 70° WSW
Cosmos 1814 Rocket 4.5 04:51:13 10° NNW 04:55:33 58° N 04:55:33 58° N
Atlas Centaur 2 3.0 04:48:40 10° W 04:56:31 60° SSW 04:56:31 60° SSW
Cosmos 1745 Rocket 4.2 05:08:42 63° NE 05:08:42 63° NE 05:14:15 10° N
Cosmos 839 Rocket 4.1 05:06:07 10° NNW 05:12:09 65° NE 05:12:09 65° NE
Nadezhda 1 Rocket 4.2 05:19:08 10° N 05:24:27 62° NNE 05:24:27 62° NNE
Cosmos 2297 Rocket 3.6 05:29:40 29° NE 05:29:40 29° NE 05:32:34 10° NNE
Cosmos 2322 Rocket 3.7 05:22:52 10° NW 05:26:46 28° W 05:26:46 28° W
CENTAUR R/B 4.5 05:33:37 14° ENE 05:33:37 14° ENE 05:34:45 10° ENE
CZ-3 Stage 3 3.6 05:00:21 10° W 05:34:15 76° SSW 05:35:53 65° SE
COSMOS 2428 3.5 05:47:05 10° NNW 05:51:11 47° N 05:51:11 47° N
Cosmos 2219 Rocket 3.4 05:47:58 10° NNW 05:51:37 36° WNW 05:51:37 36° WNW
COSMOS 2455 3.8 06:07:47 41° NW 06:07:47 41° NW 06:13:10 10° N
SL-12 R/B(2) 4.4 06:09:01 55° E 06:09:01 55° E 06:16:37 10° NE
CZ-4C R/B 3.7 06:13:09 26° NNW 06:13:09 26° NNW 06:16:11 10° N
ATLAS 2AS CENTAUR R/B 4.3 06:21:55 10° WNW 06:24:53 20° W 06:24:53 20° W
USA 281 4.4 06:32:33 30° WNW 06:32:33 30° WNW 06:36:45 10° NW
Cosmos 2098 Rocket 4.5 06:27:19 10° N 06:32:30 57° NNW 06:32:30 57° NNW
SL-16 R/B 4.2 06:41:35 10° NNE 06:45:40 20° ENE 06:46:35 19° ENE
Cosmos 2227 Rocket 3.2 06:52:28 43° NNW 06:52:28 43° NNW 06:56:29 10° NNE
Cosmos 2237 Rocket 3.2 06:47:27 10° NNW 06:51:08 42° NNW 06:51:08 42° NNW
H-2A R/B 4.5 06:49:49 10° N 06:51:12 19° N 06:51:12 19° N
Cosmos 2297 Rocket 4.2 07:11:25 19° WNW 07:11:25 19° WNW 07:15:19 10° NNW
Cosmos 2219 4.0 07:15:09 47° N 07:15:09 47° N 07:19:12 10° NNE
CENTAUR R/B 3.3 07:20:44 39° NW 07:20:44 39° NW 07:26:19 10° NNE
Cosmos 2341 Rocket 4.4 07:27:49 56° ENE 07:27:49 56° ENE 07:33:16 10° NNE
ADEOS II 4.3 07:31:32 10° ENE 07:34:19 15° E 07:34:19 15° E
Cosmos 1937 Rocket 4.4 07:38:33 47° NNE 07:38:33 47° NNE 07:42:18 10° NNE
Cosmos 1898 Rocket 4.4 07:42:11 44° N 07:42:11 44° N 07:45:48 10° N
Cosmos 2263 Rocket 2.9 07:45:28 47° NNW 07:45:28 47° NNW 07:49:51 10° N
Resurs 1-4 Rocket 3.3 07:43:10 10° NNE 07:47:22 33° E 07:47:22 33° E
Cosmos 2218 Rocket 3.9 08:03:34 86° NNW 08:03:34 86° NNW 08:09:39 10° N
Cosmos 1844 Rocket 3.7 08:04:20 36° E 08:04:20 36° E 08:09:14 10° NE
Cosmos 2366 rocket 3.9 08:10:21 74° WNW 08:10:21 74° WNW 08:16:30 10° N
NOSS 3-2 (C) 3.5 08:12:44 52° NNW 08:12:44 52° NNW 08:17:47 10° NNE
ALOS 4.4 08:09:54 10° NE 08:12:56 17° E 08:13:24 17° ESE
Cosmos 1680 Rocket 4.0 08:14:35 10° N 08:19:40 53° ENE 08:20:14 50° E
Cosmos 2228 4.0 08:18:43 10° N 08:21:59 46° NNE 08:21:59 46° NNE
USA 267 3.3 08:16:49 10° NE 08:23:17 63° SE 08:24:01 59° SSE
MSX 3.6 08:19:41 10° NNE 08:25:26 85° WNW 08:25:33 84° WSW
SL-16 R/B 3.0 08:24:32 10° NNW 08:28:23 38° WNW 08:28:23 38° WNW
SL-16 R/B 4.0 08:29:05 10° SE 08:34:33 33° ENE 08:40:01 10° N
CZ-2C R/B 2.6 08:37:15 64° SE 08:37:59 76° ENE 08:43:18 10° N
IDEFIX/ARIANE 42P 2.9 08:33:23 10° N 08:38:13 51° WNW 08:38:13 51° WNW
SEDSat Delta rocket 4.5 08:41:06 26° E 08:41:06 26° E 08:42:59 10° E
Mugunghwa Rocket 4.3 08:42:20 48° SSE 08:42:20 48° SSE 08:48:04 10° E
CZ-2C R/B 2.8 08:39:22 10° N 08:44:40 82° WNW 08:44:52 79° WSW
Cosmos 1943 3.5 08:39:12 10° NNW 08:44:46 62° ENE 08:47:43 28° SE
CZ-2D R/B 2.1 08:43:28 10° N 08:48:42 61° WNW 08:48:55 60° W
FENGYUN 3A 3.5 08:46:40 10° NNE 08:52:03 89° E 08:52:54 65° S
ASTEX 1 4.0 08:52:22 35° SE 08:54:04 52° E 08:58:47 10° N
Cosmos 1606 Rocket 4.5 08:50:40 10° N 08:54:55 45° E 08:56:15 34° SE
Cosmos 1125 Rocket 4.0 08:57:57 40° SSE 08:59:24 52° ESE 09:04:31 10° NNE
Cosmos 1867 4.0 09:01:14 43° W 09:02:02 46° WNW 09:07:18 10° NNE
Cosmos 2239 Rocket 4.4 09:00:57 51° SSW 09:02:33 75° W 09:08:41 10° N
SL-08 R/B 4.5 09:05:17 47° SSW 09:07:06 69° W 09:13:22 10° N
Cosmos 1727 Rocket 4.0 09:01:51 10° N 09:08:08 70° W 09:10:22 42° SSW
Cosmos 1726 Rocket 4.3 09:06:07 10° N 09:10:25 50° E 09:12:35 26° SE
Cosmos 494 Rocket 4.4 09:07:11 10° N 09:12:23 61° ENE 09:17:16 11° SSE
Cosmos 1812 4.5 09:10:22 10° NNE 09:13:26 27° E 09:15:37 15° SE
Cosmos 2058 3.8 09:12:19 33° SE 09:13:33 43° E 09:17:24 10° NNE
ADEOS II 2.3 09:09:06 10° N 09:14:11 52° WNW 09:15:11 45° WSW
Cosmos 1844 4.0 09:15:24 43° WSW 09:16:53 56° WNW 09:22:34 10° N
USA 238 DEB 4.3 09:16:15 29° W 09:18:24 38° NW 09:24:25 10° NNE
USA 238 4.3 09:16:17 29° W 09:18:26 38° NW 09:24:29 10° NNE
IRAS Rocket 4.3 09:13:01 10° NNE 09:18:31 76° ESE 09:20:58 34° S
GOES 2 Rocket 4.4 09:21:11 24° SSE 09:21:11 24° SSE 09:23:27 10° SE
Cosmos 1000 Rocket 4.4 09:15:58 10° N 09:22:14 78° W 09:25:45 28° S
SAR-Lupe-4 3.4 09:18:50 10° NNE 09:22:24 87° ESE 09:22:35 79° S
ATLAS 5 CENTAUR R/B 2.2 09:25:49 27° SE 09:26:17 28° ESE 09:29:10 10° NE
Timation 2 Rocket 4.0 09:23:52 33° SSW 09:27:08 90° WNW 09:33:39 10° NNE
Resurs 1-4 Rocket 3.4 09:23:23 10° NNW 09:27:30 23° WNW 09:28:26 22° W
UNK 4.3 09:25:29 11° SSE 09:29:47 58° ENE 09:34:18 10° N
Iridium 4 Rocket 4.1 09:25:25 10° NNE 09:29:51 48° E 09:34:34 10° SSE
Dummy Sat-01 4.5 09:27:15 10° N 09:30:57 70° W 09:31:21 62° SW
Meteor 1-28 Rocket 3.2 09:35:43 51° W 09:35:43 51° W 09:39:05 10° NNW
Delta 142 4.2 09:40:12 33° WSW 09:42:12 51° S 09:48:19 10° ESE
Cosmos 1544 2.3 09:42:29 67° ESE 09:42:35 68° E 09:45:10 10° NNE
NOSS 2-3 (D) 4.3 09:42:01 24° SSE 09:43:41 37° ESE 09:47:06 10° NE
Cosmos 1892 Rocket 4.1 09:42:43 36° WSW 09:43:42 41° W 09:47:54 10° N
Cosmos 1535 Rocket 4.4 09:39:57 22° S 09:44:12 82° W 09:50:23 10° N
Delta 2 Rocket 3.6 09:43:07 16° WNW 09:46:11 67° NNE 09:50:33 10° E
NOAA 11 4.3 09:42:00 10° NNE 09:47:29 78° ESE 09:51:43 17° S
Cosmos 1844 Rocket 4.0 09:45:59 20° W 09:48:03 25° WNW 09:52:34 10° N
Cosmos 2058 Rocket 3.3 09:44:17 10° N 09:48:42 72° E 09:53:03 10° SSE
ALOS 3.0 09:45:59 10° N 09:50:09 35° WNW 09:51:42 27° WSW
Cosmos 2298 Rocket 4.0 09:49:11 23° SSW 09:52:33 88° WNW 09:57:54 10° NNE
METEOR-M 4.1 09:49:22 10° N 09:54:43 81° WNW 09:58:36 19° SSW
Aurora 2 Rocket 4.5 09:53:30 19° S 09:55:48 24° SSE 10:01:08 10° ESE
BREEZE-M DEB (TANK) 3.5 09:54:25 29° WSW 09:56:01 64° NW 10:04:46 10° NE
Cosmos 1607 4.1 09:55:04 10° NNW 10:01:28 81° ENE 10:07:40 10° SSE
NOSS 2-2 (C) 3.0 10:00:13 31° SW 10:01:37 58° WNW 10:04:44 10° NNE
Cosmos 1605 Rocket 4.0 09:57:05 16° SSW 10:02:05 70° W 10:08:13 10° N
USA 267 4.4 10:00:16 10° NNE 10:05:57 33° NW 10:11:21 11° W
Cosmos 2278 Rocket 3.7 10:05:19 10° SSE 10:10:19 33° ESE 10:15:20 10° NE
NOSS 2-2 (D) 2.8 10:08:13 23° SSW 10:10:23 85° WNW 10:13:34 10° NNE
Cosmos 1626 Rocket 3.5 10:06:55 16° SSW 10:10:29 73° W 10:14:55 10° N
NOSS 2-3 (E) 3.0 10:08:40 23° SW 10:10:51 80° WNW 10:14:33 10° NNE
CZ-4 R/B 4.1 10:06:34 10° N 10:11:24 57° WNW 10:15:17 16° SSW
USA 276 4.5 10:10:45 10° SSE 10:12:25 14° SE 10:14:04 10° E
BREEZE-M DEB (TANK) 3.9 10:15:45 12° S 10:15:45 12° S 10:16:11 10° S
H-2A R/B 3.4 10:10:18 10° NNE 10:15:10 37° E 10:19:53 10° SSE
NOSS 2-3 (C) 3.1 10:13:54 21° SW 10:16:13 68° WNW 10:19:53 10° NNE
SL-16 R/B 3.3 10:13:12 13° SSW 10:17:59 32° W 10:23:29 10° NW
Cosmos 1862 4.0 10:14:28 10° S 10:18:09 50° E 10:21:49 10° NNE
Cosmos 1271 Rocket 2.9 10:18:02 10° S 10:21:34 64° E 10:25:07 10° NNE
IRS-1D 3.5 10:16:37 10° N 10:21:47 83° WNW 10:26:47 10° SSW
SEDSat Delta rocket 2.7 10:20:59 12° W 10:24:43 81° S 10:28:49 10° E
Cosmos 1484 Rocket 4.3 10:27:18 10° NNE 10:30:48 35° E 10:34:17 10° SSE
Envisat 4.0 10:30:09 10° NNW 10:34:28 29° WNW 10:38:38 11° SW
Mugunghwa Rocket 4.2 10:30:57 10° W 10:37:17 51° S 10:43:21 10° ESE
Okean 1-7 Rocket 3.7 10:34:52 10° SSW 10:39:18 58° W 10:43:43 10° N
CZ-2C R/B 3.1 10:40:25 10° N 10:44:29 33° WNW 10:48:34 10° SW
SWARM A 4.5 10:42:40 10° SSW 10:46:09 57° W 10:49:38 10° N
NOSS 3-1 (C) 4.3 10:42:41 10° S 10:46:49 34° ESE 10:51:22 10° NE
Lacrosse 5 2.6 10:42:49 10° SSW 10:47:40 49° ESE 10:52:32 10° NE
Cosmos 1238 Rocket 3.9 10:46:00 10° NW 10:48:01 16° W 10:49:56 10° SW
Cosmos-2242 3.2 10:44:38 10° NNW 10:48:49 53° W 10:52:58 10° S
Cosmos 1782 3.1 10:50:11 10° NNW 10:53:50 43° W 10:57:27 10° SSW
